Torna al catalogo

STARLINK-36728

AttivoComunicazioniVLEO
NORAD 67927·PAYLOAD·🇺🇸 United States

Lanciato Feb 22, 2026 da Vandenberg Space Force Base

Loading…

Prossimi Passaggi (prossime 24 ore)

TLE

AggiornatoSource: CelesTrak SupGP

Epoca: Sep 14, 2026, 22:50 UTC

1 67927C 26036Z   26257.95187500  .00029731  00000+0  10771-2 0  2571
2 67927  43.0023 256.3017 0001393 259.0788 275.4677 15.27555146    14

Traccia STARLINK-36728 in tempo reale con AllMySat

Download on the App Store